Location: Keppel Henge
(44.7900°N, 80.9447°W)
Time: 10:51:34
(UTC-04:00)

Vanguard 1 - Visible Passes

Search period start: 20 July 2018 00:00
Search period end: 30 July 2018 00:00
Orbit: 650 x 3833 km, 34.2° (Epoch: 19 July)

Date Brightness Start Highest point End Pass type
(mag) Time Alt. Az. Time Alt. Az. Time Alt. Az.
20 Jul 11.0 04:10:21 17° S 04:10:21 17° S 04:13:14 10° SSE visible
21 Jul 11.2 04:30:49 13° S 04:30:49 13° S 04:33:03 10° SSE visible
21 Jul 11.7 21:49:46 10° S 21:52:35 12° SSE 21:54:59 10° SE visible
22 Jul 11.4 22:08:47 10° SSW 22:13:27 17° SSE 22:15:26 14° SE visible
23 Jul 11.1 22:28:40 10° SSW 22:34:18 21° SSE 22:35:46 19° SSE visible
24 Jul 10.9 22:48:58 10° SW 22:55:08 25° S 22:55:59 24° SSE visible
25 Jul 10.7 23:09:34 10° SW 23:15:56 28° S 23:16:07 28° S visible
26 Jul 10.8 23:30:21 10° WSW 23:36:09 29° SSW 23:36:09 29° SSW visible
27 Jul 11.5 21:28:55 10° SW 21:37:27 28° S 21:42:56 10° ESE visible
27 Jul 11.0 23:51:16 10° WSW 23:56:07 28° SSW 23:56:07 28° SSW visible
28 Jul 11.3 21:49:27 10° SW 21:58:19 32° S 22:03:19 13° ESE visible
29 Jul 11.3 00:12:18 10° WSW 00:16:02 23° SW 00:16:02 23° SW visible
29 Jul 11.1 22:10:14 10° WSW 22:19:11 35° S 22:23:10 18° SE visible
